Location: Monroe
(41.9160°N, 83.3980°W)
Time: 20:24:05
(UTC-04:00)

ISS - All Passes

Search period start: 30 April 2016 00:00
Search period end: 10 May 2016 00:00
Orbit: 402 x 405 km, 51.6° (Epoch: 30 April)

Date Brightness Start Highest point End Pass type
(mag) Time Alt. Az. Time Alt. Az. Time Alt. Az.
30 Apr - 08:19:49 10° S 08:21:51 16° SE 08:23:54 10° E daylight
30 Apr - 09:54:45 10° WSW 09:57:59 62° NNW 10:01:14 10° NE daylight
30 Apr - 11:32:35 10° WNW 11:34:57 18° NNW 11:37:19 10° NNE daylight
30 Apr - 13:10:14 10° NNW 13:12:20 16° N 13:14:27 10° NE daylight
30 Apr - 14:46:24 10° NW 14:49:29 38° NNE 14:52:34 10° E daylight
30 Apr - 16:23:01 10° WNW 16:25:52 28° SW 16:28:42 10° SSE daylight
01 May - 09:02:17 10° SW 09:05:31 71° SE 09:08:46 10° ENE daylight
01 May - 10:39:34 10° WNW 10:42:15 23° NNW 10:44:57 10° NE daylight
01 May - 12:17:36 10° NW 12:19:35 15° N 12:21:34 10° NE daylight
01 May - 13:54:03 10° NW 13:56:52 26° NNE 13:59:41 10° E daylight
01 May - 15:30:18 10° WNW 15:33:31 54° SW 15:36:42 10° SE daylight
02 May - 08:10:07 10° SSW 08:13:07 36° SE 08:16:10 10° ENE daylight
02 May - 09:46:37 10° W 09:49:36 32° NNW 09:52:36 10° NE daylight
02 May - 11:24:47 10° NW 11:26:49 15° N 11:28:51 10° NNE daylight
02 May - 13:01:41 10° NW 13:04:12 20° NNE 13:06:41 10° ENE daylight
02 May - 14:37:47 10° NW 14:41:03 79° NNE 14:44:19 10° ESE daylight
02 May - 16:15:45 10° WSW 16:17:05 12° SW 16:18:26 10° SSW daylight
03 May - 07:18:24 10° S 07:20:48 19° SE 07:23:13 10° E daylight
03 May - 08:53:50 10° WSW 08:57:01 51° NNW 09:00:14 10° NE daylight
03 May - 10:31:47 10° NW 10:34:03 17° N 10:36:19 10° NNE daylight
03 May - 12:09:15 10° NNW 12:11:27 16° N 12:13:38 10° NE daylight
03 May - 13:45:22 10° NW 13:48:32 44° NNE 13:51:40 10° ESE daylight
03 May - 15:22:11 10° W 15:24:49 22° SW 15:27:26 10° S daylight
04 May - 08:01:15 10° SW 08:04:30 88° SE 08:07:47 10° NE daylight
04 May - 09:38:44 10° WNW 09:41:19 21° NNW 09:43:53 10° NE daylight
04 May - 11:16:40 10° NW 11:18:40 15° N 11:20:40 10° NE daylight
04 May - 12:52:59 10° NW 12:55:54 29° NNE 12:58:49 10° E daylight
04 May - 14:29:20 10° WNW 14:32:27 43° SW 14:35:34 10° SSE daylight
05 May - 07:08:55 10° SSW 07:12:03 44° SE 07:15:11 10° ENE daylight
05 May - 08:45:43 10° W 08:48:37 28° NNW 08:51:30 10° NE daylight
05 May - 10:23:52 10° NW 10:25:51 15° N 10:27:52 10° NE daylight
05 May - 12:00:36 10° NW 12:03:13 21° NNE 12:05:48 10° ENE daylight
05 May - 13:36:44 10° NW 13:40:00 85° SSW 13:43:16 10° SE daylight
06 May - 06:17:00 10° S 06:19:40 23° SE 06:22:20 10° E daylight
06 May - 07:52:49 10° WSW 07:55:58 43° NNW 07:59:07 10° NE daylight
06 May - 09:30:53 10° NW 09:33:03 16° N 09:35:14 10° NNE daylight
06 May - 11:08:10 10° NNW 11:10:27 17° NNE 11:12:45 10° NE daylight
06 May - 12:44:15 10° NW 12:47:28 53° NNE 12:50:40 10° ESE daylight
06 May - 14:21:19 10° W 14:23:40 18° SW 14:26:00 10° S daylight
07 May - 05:25:53 10° SSE 05:27:21 12° SE 05:28:49 10° ESE visible
07 May - 07:00:08 10° WSW 07:03:23 76° NW 07:06:40 10° NE daylight
07 May - 08:37:47 10° WNW 08:40:17 19° NNW 08:42:45 10° NE daylight
07 May - 10:15:36 10° NNW 10:17:39 15° N 10:19:41 10° NE daylight
07 May - 11:51:50 10° NW 11:54:50 33° NNE 11:57:50 10° E daylight
07 May - 13:28:17 10° WNW 13:31:18 34° SW 13:34:18 10° SSE daylight
08 May - 06:07:41 10° SW 06:10:53 56° SE 06:14:06 10° ENE daylight
08 May - 07:44:44 10° W 07:47:32 25° NNW 07:50:20 10° NE daylight
08 May - 09:22:50 10° NW 09:24:48 15° N 09:26:47 10° NE daylight
08 May - 10:59:25 10° NW 11:02:08 23° NNE 11:04:50 10° ENE daylight
08 May - 12:35:36 10° WNW 12:38:51 68° SW 12:42:05 10° SE daylight
09 May - 05:15:35 10° SSW 05:18:27 28° SE 05:21:20 10° ENE visible
09 May - 06:51:46 10° W 06:54:50 37° NNW 06:57:55 10° NE daylight
09 May - 08:29:53 10° NW 08:31:58 16° N 08:34:05 10° NNE daylight
09 May - 10:06:59 10° NNW 10:09:22 18° NNE 10:11:45 10° ENE daylight
09 May - 11:43:04 10° NW 11:46:19 64° NNE 11:49:33 10° ESE daylight
09 May - 13:20:27 10° W 13:22:25 15° SW 13:24:23 10° S daylight
